Location: Alladorf
(49.9620°N, 11.3790°E)
Time: 21:28:15
(UTC+00:00)

USA 290 - Pass Details

Date: 29 November 2020
Orbit: 399 x 412 km, 73.6° (Epoch: 27 December)

Event Time Altitude Azimuth Distance (km) Brightness Sun altitude
Exits shadow 06:07:44 - 341° (NNW) 2,251 5.5 -6.6°
Reaches altitude 10° 06:09:34 10° 347° (NNW) 1,499 4.7 -6.3°
Maximum altitude 06:12:44 43° 61° (ENE) 601 3.4 -5.8°
Drops below altitude 10° 06:15:52 10° 134° (SE) 1,485 6.5 -5.4°
Sets 06:17:57 0° 142° (SE) 2,342 7.5 -5.1°
